STARLINK-30358, 57879

Orbit data source: Space-Track

STARLINK-30358, 57879 is a payload satellite owned by SpaceX/Seattle (US) in LEO that was launched on Sat, 16 Sep 2023 UTC via an FALCON 9 launch vehicle from the Air Force Eastern Test Range (AFETR). Payload-class satellites include a variety of spacecraft equipped with specific instruments for various scientific and technological missions. These include communications satellites like Starlink; space stations such as the ISS; scientific satellites like the Hubble; Earth observation satellites from companies like Planet Labs, Umbra, and HawkEye 360; GPS; miniature CubeSats for education and research; and military/defense satellites.

Loading next visibility...
Identifier
57879, 2023-144R
Orbit
LEO
Country
Flag of USUS
Related business
Manufacturer
SpaceX/Seattle
Mission
Operational Commercial Communications
Bus & Motor
STARLINK V2M, Unknown motor
Mass
730 kg wet, ~700 kg dry
Launch date (UTC)
2023-09-16 (3 years ago)
Launch vehicle
FALCON 9
Launch site
Air Force Eastern Test Range (AFETR)
Object type
Payload
Rocket body
Debris
Shape & HBR
Box + 2 Pan, 17.7 m
Radar Cross Section
33.884 m², Large (>1 m²)

Expand to show TLE details & history
Last TLE update: 2 days ago

TLE from 2 days ago
0 STARLINK-30358
1 57879U 23144R   26171.42939999  .00000014  00000-0  10053-4 0  9999
2 57879  43.0066  64.6816 0002291 253.9966 106.0634 15.27586143153351
Epoch: 2026-06-20T10:18Z
TLE epoch observation values (Epoch: 2026-06-20T10:18:20.159Z)
Latitude
0.00003°
Longitude
1.45349°
Altitude
483.242 km
Speed
7.625 km/s
True Right ascension
04h 18m 43s
True Declination
0° 00' 00"
Sunlit
Object was in daylight at epoch
Visualization orbit readout
Latitude
Unknown
Longitude
Unknown
Altitude
Unknown
Speed
Unknown
Apparent Right ascension
Unknown
Apparent Declination
Unknown
Sunlit
N/A
Visualization observer readout
Local Sidereal Time
00:50:02
Azimuth
Unknown
Elevation
Unknown
Doppler factor
Unknown
Orbital elements
Apogee altitude
486.547 km
Perigee altitude
483.402 km
Semi-major axis
6,863.112 km
Eccentricity
0.00023
Inclination
43.0066°
RAAN
64.6816°
Arg. of periapsis
253.9966°
True anomaly
106.08863°
Mean anomaly
106.0634°
Eccentric anomaly
106.07601°
Mean motion
3.81735 °/min
Orbital period
94.31 mins
BSTAR
0.000010053
Loading maneuver chart data...
Computing Atmospheric mass density...
Loading historical data...
Loading historical data...
Loading historical data...
Loading historical data...
Loading historical data...
Loading historical data...
Loading historical data...

Documentation

Showing up to 5 results
|